Weather History for Ingleside, TX

Change the Weather History Date:

Monday, January 7, 2013

  Actual Average Record
Temperature  
Mean Temperature 52 °F -  
Max Temperature 64 °F - - ()
Min Temperature 39 °F - - ()
Degree Days  
Heating Degree Days 14    
Growing Degree Days 2 (Base 50)    
Moisture  
Dew Point 48 °F    
Average Humidity 84    
Maximum Humidity 95    
Minimum Humidity 61    
Precipitation  
Precipitation 0.00 in - - ()
Sea Level Pressure  
Sea Level Pressure 30.17 in    
Wind  
Wind Speed 8 mph (NE)    
Max Wind Speed 16 mph    
Max Gust Speed 20 mph    
Visibility 9 miles    
Events Rain    
T = Trace of Precipitation, MM = Missing Value Source: NWS Daily Summary

Daily Weather History Graph

Daily Weather History Graph

Search for Another Location

Airport:

Trip Planner

Search our weather history database for the weather conditions in past years. The results will help you decide how hot, cold, wet, or windy it might be!

Date:

Astronomy

Jan. 07, 2013 Rise Set
Actual Time 7:21 AM CST 5:49 PM CST
Civil Twilight 6:55 AM CST 6:15 PM CST
Nautical Twilight 6:26 AM CST 6:44 PM CST
Astronomical Twilight 5:58 AM CST 7:12 PM CST
Moon 2:52 AM CST (1/7) 1:57 PM CST (1/7)
Length of Visible Light 11h 19m
Length of Day
10h 28m
Waning Crescent, 22% of the Moon is Illuminated
Jan 7
Waning Crescent
Jan 11
New
Jan 18
First Quarter
Jan 26
Full
Feb 3
Last Quarter

Hourly Weather History & Observations

Time (CST) Temp. Windchill Dew Point Humidity Pressure Visibility Wind Dir Wind Speed Gust Speed Precip Events Conditions
12:15 AM 45.1 °F 42.0 °F 41.0 °F 85% 30.31 in 10.0 mi NE 5.8 mph - N/A   Clear
12:35 AM 44.1 °F 41.5 °F 40.3 °F 87% 30.30 in 10.0 mi NE 4.6 mph - N/A   Clear
12:55 AM 43.7 °F 40.3 °F 39.9 °F 87% 30.30 in 10.0 mi NNE 5.8 mph - N/A   Clear
1:35 AM 44.1 °F 42.5 °F 40.1 °F 86% 30.30 in 10.0 mi NE 3.5 mph - N/A   Clear
1:55 AM 44.4 °F 42.0 °F 40.3 °F 85% 30.29 in 10.0 mi NE 4.6 mph - N/A   Clear
2:15 AM 43.7 °F - 39.9 °F 87% 30.28 in 10.0 mi North - - N/A   Clear
2:35 AM 42.8 °F 39.3 °F 39.9 °F 90% 30.28 in 10.0 mi NE 5.8 mph - N/A   Clear
2:55 AM 41.7 °F 38.0 °F 39.0 °F 90% 30.27 in 10.0 mi NNE 5.8 mph - N/A   Clear
3:15 AM 41.0 °F 37.1 °F 38.7 °F 91% 30.27 in 10.0 mi NNE 5.8 mph - N/A   Clear
3:35 AM 40.6 °F 38.6 °F 38.3 °F 91% 30.27 in 10.0 mi North 3.5 mph - N/A   Clear
3:55 AM 39.7 °F 35.6 °F 37.4 °F 91% 30.26 in 10.0 mi NNE 5.8 mph - N/A   Clear
4:15 AM 40.3 °F 36.3 °F 38.1 °F 92% 30.25 in 10.0 mi North 5.8 mph - N/A   Clear
4:35 AM 41.0 °F 39.0 °F 39.0 °F 93% 30.25 in 10.0 mi NE 3.5 mph - N/A   Clear
4:55 AM 41.0 °F - 39.0 °F 93% 30.24 in 7.0 mi Calm Calm - N/A   Clear
5:15 AM 41.0 °F 36.4 °F 39.2 °F 93% 30.23 in 7.0 mi NE 6.9 mph - N/A   Clear
5:35 AM 41.9 °F 38.2 °F 40.3 °F 94% 30.23 in 7.0 mi NE 5.8 mph - N/A   Clear
5:55 AM 42.3 °F 37.9 °F 40.6 °F 94% 30.23 in 10.0 mi NNE 6.9 mph - N/A   Clear
6:35 AM 43.3 °F 39.9 °F 41.2 °F 92% 30.24 in 7.0 mi North 5.8 mph - N/A   Clear
6:55 AM 41.9 °F 37.5 °F 40.1 °F 93% 30.24 in 7.0 mi NNE 6.9 mph - N/A   Clear
7:15 AM 42.6 °F 37.8 °F 41.0 °F 94% 30.24 in 7.0 mi NNE 8.1 mph - N/A   Clear
7:35 AM 43.5 °F 39.4 °F 41.7 °F 93% 30.24 in 5.0 mi NE 6.9 mph - N/A   Clear
7:55 AM 43.7 °F 39.1 °F 41.7 °F 93% 30.23 in 5.0 mi NE 8.1 mph - N/A   Clear
8:15 AM 44.8 °F 41.0 °F 42.6 °F 92% 30.24 in 7.0 mi NE 6.9 mph - N/A   Clear
8:35 AM 46.9 °F - 44.2 °F 90% 30.25 in 7.0 mi NNE 6.9 mph - N/A   Clear
8:55 AM 48.6 °F - 45.1 °F 88% 30.25 in 10.0 mi NE 8.1 mph - N/A   Clear
9:15 AM 49.8 °F - 45.9 °F 86% 30.24 in 10.0 mi NNE 6.9 mph - N/A   Clear
9:35 AM 50.4 °F - 46.2 °F 86% 30.25 in 10.0 mi NE 8.1 mph - N/A   Clear
9:55 AM 52.5 °F - 47.3 °F 82% 30.25 in 10.0 mi NE 5.8 mph - N/A   Clear
10:15 AM 56.5 °F - 47.8 °F 73% 30.25 in 10.0 mi ENE 10.4 mph - N/A   Clear
10:35 AM 58.5 °F - 47.5 °F 67% 30.25 in 10.0 mi NE 9.2 mph - N/A   Clear
10:55 AM 59.9 °F - 48.0 °F 65% 30.25 in 10.0 mi ENE 11.5 mph - N/A   Clear
11:15 AM 61.3 °F - 48.6 °F 63% 30.24 in 10.0 mi NE 8.1 mph - N/A   Clear
11:35 AM 61.5 °F - 48.9 °F 63% 30.23 in 10.0 mi ENE 10.4 mph - N/A   Clear
11:55 AM 62.6 °F - 49.1 °F 61% 30.21 in 10.0 mi ENE 9.2 mph - N/A   Clear
12:15 PM 62.8 °F - 49.8 °F 63% 30.19 in 10.0 mi ENE 10.4 mph - N/A   Clear
12:35 PM 62.8 °F - 50.4 °F 64% 30.18 in 10.0 mi ENE 9.2 mph - N/A   Clear
1:15 PM 63.5 °F - 51.1 °F 64% 30.14 in 10.0 mi ENE 11.5 mph - N/A   Clear
1:35 PM 63.0 °F - 51.1 °F 65% 30.13 in 10.0 mi ENE 13.8 mph - N/A   Clear
1:55 PM 63.5 °F - 51.8 °F 66% 30.12 in 10.0 mi ENE 11.5 mph - N/A   Clear
2:15 PM 64.0 °F - 52.0 °F 65% 30.11 in 10.0 mi East 13.8 mph - N/A   Clear
2:35 PM 63.7 °F - 52.3 °F 67% 30.10 in 10.0 mi ENE 12.7 mph - N/A   Clear
2:55 PM 62.6 °F - 52.5 °F 70% 30.10 in 10.0 mi ENE 13.8 mph - N/A   Clear
3:15 PM 61.9 °F - 52.7 °F 72% 30.09 in 10.0 mi ENE 15.0 mph 19.6 mph N/A   Clear
3:35 PM 60.8 °F - 53.1 °F 76% 30.10 in 10.0 mi East 16.1 mph - N/A   Mostly Cloudy
3:55 PM 60.1 °F - 53.6 °F 79% 30.08 in 10.0 mi ENE 13.8 mph - N/A   Mostly Cloudy
4:15 PM 60.1 °F - 53.8 °F 80% 30.10 in 10.0 mi ENE 16.1 mph - N/A   Scattered Clouds
4:35 PM 59.7 °F - 54.0 °F 81% 30.09 in 10.0 mi ENE 15.0 mph 19.6 mph N/A   Mostly Cloudy
5:15 PM 59.0 °F - 54.5 °F 85% 30.10 in 10.0 mi ENE 12.7 mph - N/A   Overcast
5:35 PM 58.8 °F - 54.5 °F 86% 30.10 in 10.0 mi East 12.7 mph - N/A   Overcast
5:55 PM 58.6 °F - 54.5 °F 86% 30.09 in 10.0 mi ENE 12.7 mph - N/A   Overcast
6:15 PM 58.3 °F - 54.7 °F 88% 30.10 in 10.0 mi ENE 9.2 mph - N/A   Overcast
6:35 PM 58.3 °F - 54.7 °F 88% 30.09 in 10.0 mi ENE 10.4 mph - N/A   Overcast
6:55 PM 58.1 °F - 54.7 °F 88% 30.10 in 10.0 mi NE 10.4 mph - N/A   Overcast
7:15 PM 57.9 °F - 54.9 °F 90% 30.10 in 7.0 mi NE 10.4 mph - N/A   Overcast
7:35 PM 57.4 °F - 54.9 °F 91% 30.09 in 5.0 mi NE 10.4 mph - N/A   Overcast
7:55 PM 57.0 °F - 54.9 °F 92% 30.08 in 5.0 mi NE 9.2 mph - N/A Rain Light Rain
8:15 PM 56.8 °F - 54.9 °F 93% 30.08 in 5.0 mi NE 9.2 mph - N/A   Overcast
8:35 PM 56.8 °F - 55.0 °F 94% 30.07 in 7.0 mi ENE 12.7 mph 17.3 mph N/A   Overcast
8:55 PM 56.8 °F - 55.0 °F 94% 30.05 in 7.0 mi ENE 16.1 mph 19.6 mph N/A   Overcast
9:15 PM 56.8 °F - 54.9 °F 93% 30.06 in 7.0 mi ENE 13.8 mph - N/A   Overcast
9:35 PM 56.8 °F - 54.9 °F 93% 30.05 in 7.0 mi ENE 11.5 mph 19.6 mph N/A   Overcast
9:55 PM 56.8 °F - 54.9 °F 93% 30.05 in 7.0 mi ENE 10.4 mph - N/A   Overcast
10:15 PM 56.8 °F - 54.9 °F 93% 30.03 in 5.0 mi East 16.1 mph 19.6 mph N/A   Overcast
10:55 PM 56.5 °F - 54.9 °F 94% 30.03 in 3.0 mi ENE 11.5 mph 18.4 mph N/A Rain Light Rain
11:15 PM 56.7 °F - 55.2 °F 95% 30.03 in 5.0 mi ENE 13.8 mph 17.3 mph N/A   Overcast
11:35 PM 56.8 °F - 55.4 °F 95% 30.02 in 3.0 mi ENE 15.0 mph - N/A   Overcast
11:55 PM 57.2 °F - 55.6 °F 94% 30.01 in 4.0 mi ENE 11.5 mph - N/A   Light Drizzle